User: anonymous   Login
Location: Diebersbach
(48.5163°N, 8.0558°E)
Time: 04:12:33
(UTC+00:00)
Language:

Cosmos 2098 Rocket - Orbit

View from above orbital plane
View from above orbital plane
View from above satellite
View from above satellite

Ground track
Ground track

The orbit data is extracted from the following two-line orbital elements,

1 20775U 90078B   21261.33780425  .00001736  00000-0  82997-4 0  9995
2 20775  82.9281 208.4876 0564557 214.1494 142.2164 14.36357620571421
Epoch (UTC): 18 September 2021 08:06:26
Eccentricity: 0.0564557
inclination: 82.9281°
perigee height: 367 km
apogee height: 1174 km
right ascension of ascending node: 208.4876°
argument of perigee: 214.1494°
revolutions per day: 14.36357620
mean anomaly at epoch: 142.2164°
orbit number at epoch: 57142

The dashed part of the orbit path shows where the satellite is in the earth's shadow,  

DLR